OpenBCM V1.08-5-g2f4a (Linux)

Packet Radio Mailbox

IZ3LSV

[San Dona' di P. JN]

 Login: GUEST





  
CX2SA  > KEPS     13.07.12 06:45l 221 Lines 5826 Bytes #999 (0) @ WW
BID : ORB12194.W
Read: GUEST
Subj: Orbital Elements  12194.WEATHER
Path: IZ3LSV<IQ5KG<IK1NHL<CX2SA
Sent: 120713/0444Z @:CX2SA.SAL.URY.SA #:62997 [Salto] FBB7.00e $:ORB12194.W
From: CX2SA@CX2SA.SAL.URY.SA
To  : KEPS@AMSAT


HR AMSAT ORBITAL ELEMENTS FOR WEATHER SATELLITES
FROM WA5QGD FORT WORTH,TX July 12, 2012
Send SUBSCRIBE KEPS/UNSUBSCRIBE KEPS to majordomo@amsat.org only
BID: ORB12194.W
TO ALL RADIO AMATEURS BT

Satellite: NOAA-10
Catalog number: 16969
Epoch time:      12193.97195535
Element set:    0995
Inclination:      098.5799 deg
RA of node:       222.5834 deg
Eccentricity:    0.0012452
Arg of perigee:   158.1147 deg
Mean anomaly:     202.0569 deg
Mean motion:   14.27562825 rev/day
Decay rate:       1.01e-06 rev/day^2
Epoch rev:           34340
Checksum:              321

Satellite: NOAA-11
Catalog number: 19531
Epoch time:      12193.75267111
Element set:    0988
Inclination:      098.7317 deg
RA of node:       278.3958 deg
Eccentricity:    0.0011516
Arg of perigee:   150.2068 deg
Mean anomaly:     209.9759 deg
Mean motion:   14.14972400 rev/day
Decay rate:      -1.70e-06 rev/day^2
Epoch rev:           22798
Checksum:              325

Satellite: NOAA-12
Catalog number: 21263
Epoch time:      12193.96498948
Element set:    0492
Inclination:      098.7274 deg
RA of node:       215.5121 deg
Eccentricity:    0.0014621
Arg of perigee:   126.8187 deg
Mean anomaly:     233.4337 deg
Mean motion:   14.25505971 rev/day
Decay rate:        5.7e-07 rev/day^2
Epoch rev:           10008
Checksum:              302

Satellite: MET-3/5
Catalog number: 21655
Epoch time:      12194.82612269
Element set:     455
Inclination:      082.5582 deg
RA of node:       134.0780 deg
Eccentricity:    0.0012201
Arg of perigee:   256.2547 deg
Mean anomaly:     103.7218 deg
Mean motion:   13.17039208 rev/day
Decay rate:       -1.0e-08 rev/day^2
Epoch rev:             526
Checksum:              267

Satellite: MET-2/21
Catalog number: 22782
Epoch time:      12194.53768822
Element set:     469
Inclination:      082.5465 deg
RA of node:       012.3952 deg
Eccentricity:    0.0024089
Arg of perigee:   081.6493 deg
Mean anomaly:     278.7405 deg
Mean motion:   13.83684601 rev/day
Decay rate:       -1.6e-07 rev/day^2
Epoch rev:           95267
Checksum:              330

Satellite: OKEAN-4
Catalog number: 23317
Epoch time:      12193.91515611
Element set:    0986
Inclination:      082.5385 deg
RA of node:       008.0833 deg
Eccentricity:    0.0019615
Arg of perigee:   270.9839 deg
Mean anomaly:     088.9128 deg
Mean motion:   14.83840658 rev/day
Decay rate:      1.043e-05 rev/day^2
Epoch rev:           95847
Checksum:              334

Satellite: NOAA-14
Catalog number: 23455
Epoch time:      12193.95644991
Element set:    0968
Inclination:      098.8255 deg
RA of node:       277.1436 deg
Eccentricity:    0.0008546
Arg of perigee:   248.3571 deg
Mean anomaly:     111.6690 deg
Mean motion:   14.13908074 rev/day
Decay rate:        4.9e-07 rev/day^2
Epoch rev:           90429
Checksum:              339

Satellite: NOAA-15
Catalog number: 25338
Epoch time:      12193.77100055
Element set:    0330
Inclination:      098.6918 deg
RA of node:       180.4492 deg
Eccentricity:    0.0011336
Arg of perigee:   041.7844 deg
Mean anomaly:     318.4185 deg
Mean motion:   14.25093402 rev/day
Decay rate:       3.65e-06 rev/day^2
Epoch rev:           73635
Checksum:              293

Satellite: RESURS
Catalog number: 25394
Epoch time:      12194.76212420
Element set:     134
Inclination:      098.3223 deg
RA of node:       181.6549 deg
Eccentricity:    0.0001640
Arg of perigee:   125.9501 deg
Mean anomaly:     234.1831 deg
Mean motion:   14.24290255 rev/day
Decay rate:       -2.0e-08 rev/day^2
Epoch rev:           72804
Checksum:              258

Satellite: FENGYUN1
Catalog number: 25730
Epoch time:      12194.76727470
Element set:     647
Inclination:      098.8453 deg
RA of node:       153.3043 deg
Eccentricity:    0.0018624
Arg of perigee:   294.8658 deg
Mean anomaly:     065.0577 deg
Mean motion:   14.09656679 rev/day
Decay rate:      1.085e-05 rev/day^2
Epoch rev:           67821
Checksum:              340

Satellite: OKEAN-0
Catalog number: 25860
Epoch time:      12193.96644578
Element set:    0694
Inclination:      097.9374 deg
RA of node:       156.1053 deg
Eccentricity:    0.0001366
Arg of perigee:   106.2691 deg
Mean anomaly:     253.8668 deg
Mean motion:   14.74237389 rev/day
Decay rate:       4.08e-06 rev/day^2
Epoch rev:           69822
Checksum:              341

Satellite: NOAA-16
Catalog number: 26536
Epoch time:      12193.75450587
Element set:    0817
Inclination:      099.0920 deg
RA of node:       236.2559 deg
Eccentricity:    0.0010715
Arg of perigee:   019.5940 deg
Mean anomaly:     340.5646 deg
Mean motion:   14.12757593 rev/day
Decay rate:       2.03e-06 rev/day^2
Epoch rev:           60850
Checksum:              311

Satellite: NOAA-17
Catalog number: 27453
Epoch time:      12193.88854791
Element set:    0768
Inclination:      098.3350 deg
RA of node:       219.6769 deg
Eccentricity:    0.0012848
Arg of perigee:   084.8481 deg
Mean anomaly:     275.4154 deg
Mean motion:   14.24457241 rev/day
Decay rate:       3.09e-06 rev/day^2
Epoch rev:           52227
Checksum:              342

Satellite: NOAA-18
Catalog number: 28654
Epoch time:      12193.87282602
Element set:    0249
Inclination:      099.0471 deg
RA of node:       152.1675 deg
Eccentricity:    0.0015272
Arg of perigee:   085.5023 deg
Mean anomaly:     274.7915 deg
Mean motion:   14.11672742 rev/day
Decay rate:       4.39e-06 rev/day^2
Epoch rev:           36804
Checksum:              314

Satellite: NOAA-19
Catalog number: 33591
Epoch time:      12193.88618826
Element set:    0439
Inclination:      098.8633 deg
RA of node:       133.3692 deg
Eccentricity:    0.0013493
Arg of perigee:   314.7744 deg
Mean anomaly:     045.2347 deg
Mean motion:   14.11360431 rev/day
Decay rate:       4.67e-06 rev/day^2
Epoch rev:           17649
Checksum:              327



Read previous mail | Read next mail


 16.09.2025 04:50:59lGo back Go up